Regional Weather Roundup
Issued by NWS

Home | Current Version | Previous Version | Graphics & Text | Print | Product List | Glossary On
Versions: 1 2 3 4 5 6 7 8 9 10 11 12 13 14 15 16 17 18 19 20 21 22 23 24 25 26 27 28 29 30 31 32 33 34 35 36 37 38 39 40 41 42 43 44 45 46 47 48 49 50
836
ASUS45 KBOU 240007
RWRCO

WEATHER ROUNDUP FOR COLORADO
NATIONAL WEATHER SERVICE DENVER/BOULDER CO
600 PM MDT THU MAR 23 2017

NOTE: "FAIR" INDICATES FEW OR NO CLOUDS BELOW 12000 FEET WITH NO
SIGNIFICANT WEATHER AND/OR OBSTRUCTIONS TO VISIBILITY.

COZ001>005-013-030-031-240100-
...NORTHWEST COLORADO...

CITY           SKY/WX    TMP DP  RH WIND       PRES   REMARKS
CRAIG          FAIR      53  30  41 W18G24    29.74R
HAYDEN         FAIR      52  21  30 W16       29.73S
MEEKER         PTSUNNY   51  34  52 W13       29.74R
MOUNT WERNER   NOT AVBL
STEAMBOAT SPGS FAIR      51  24  35 NW10      29.74R
WALDEN         NOT AVBL
$$

COZ006>008-011-240100-
...WEST CENTRAL VALLEYS...

CITY           SKY/WX    TMP DP  RH WIND       PRES   REMARKS
GRAND JUNCTION LGT RAIN  49  40  71 SE8       29.75R
MONTROSE       FAIR      46  36  68 SE13      29.77F
EAGLE          CLOUDY    48  27  43 SW15      29.80R
RIFLE          CLOUDY    54  27  35 W14       29.72R
DELTA          FAIR      52  36  54 E14       29.75F
NUCLA          PTSUNNY   43  36  75 N13       29.81F
$$

COZ017>023-064>068-240100-
...SOUTHWEST COLORADO...

CITY           SKY/WX    TMP DP  RH WIND       PRES   REMARKS
DURANGO        CLOUDY    37  35  92 W7        29.77S
CORTEZ         CLOUDY    38  36  92 SE10      29.81R
PAGOSA SPRINGS LGT SNOW  34  34  99 S3        29.82S
TELLURIDE      FLURRIES  32  31  96 SE6       29.82F WCI  26
WOLF CREEK PAS SNOW      21  21 100 MISG      29.87S VSB 1/2
$$

COZ009-010-012-014-032>034-037-058>063-240100-
...CENTRAL COLORADO...

CITY           SKY/WX    TMP DP  RH WIND       PRES   REMARKS
ASPEN          LGT SNOW  33  33 100 N7        29.82R VSB 1   WCI  27
BUENA VISTA    CLOUDY    46  24  40 W14       29.72S
COPPER MTN     CLOUDY    34  23  64 NW15      29.89S WCI  24
BERTHOUD PASS  CLOUDY    25  14  63 NW14      29.90F WCI  13
COTTONWOOD PAS PTSUNNY   37  27  65 SW21G30   29.78S
GUNNISON       LGT RAIN  39  34  82 NW8       29.78S
KREMMLING      DRIZZLE   48  32  53 S15G23    29.80R
LEADVILLE      CLOUDY    36  21  54 VRB3      29.80S
MONARCH PASS   CLOUDY    28  23  80 W13       29.94S WCI  18
SALIDA         PTSUNNY   51  25  36 W15G23    29.76F
SUNLIGHT       CLOUDY    28  23  80 CALM      29.89S
WILKERSON PASS LGT SNOW  32  25  74 W12G20    29.86S WCI  23
$$

COZ069>075-240100-
...SAN LUIS VALLEY/SANGRE DE CRISTO MOUNTAINS...

CITY           SKY/WX    TMP DP  RH WIND       PRES   REMARKS
ALAMOSA        FAIR      44  30  57 S21G31    29.71R
LA VETA PASS   NOT AVBL
SAGUACHE       PTSUNNY   46  23  39 NW14      29.71R
$$

COZ035-036-038>040-240100-
...NORTHERN COLORADO FRONT RANGE...

CITY           SKY/WX    TMP DP  RH WIND       PRES   REMARKS
DENVER INTL AP PTSUNNY   72   9   8 W9        29.54R
DMNS CITY PARK   N/A     67  13  12 W17       29.56R
AURORA         PTSUNNY   69   8   9 W16G23    29.56R
FRONT RANGE AP PTSUNNY   72  10   9 SW16G24   29.56R
ERIE MUNI ARPT FAIR      70  13  11 W17G24    29.56R
BOULDER MUN AP FAIR      64  21  19 W8        29.56S
CENTENNIAL     PTSUNNY   68   8   9 W15G24    29.57R
BROOMFIELD     PTSUNNY   68  18  14 W15G21    29.58S
FORT COLLINS   FAIR      67  23  19 NW10      29.57R
LONGMONT       FAIR      68  23  18 NW13      29.58S
$$

COZ041-046-047-076>085-087-088-240100-
...PIKES PEAK/PALMER DIVIDE AND SOUTHERN FOOTHILLS...

CITY           SKY/WX    TMP DP  RH WIND       PRES   REMARKS
COLO. SPRINGS  PTSUNNY   65  12  12 S12       29.58F
A. F. ACADEMY  FAIR      63   8  11 S13       29.59S
SCHRIEVER AFB  NOT AVBL
ELLICOTT         N/A    N/A N/A N/A W7        29.57F
FALCON         FAIR      61  11  14 S8G24     29.64F
FORT CARSON    NOT AVBL
LIMON          FAIR      64  23  21 N5        29.56F
MONUMENT HILL  FAIR      59  14  17 S12G23    29.65S
TRINIDAD       FAIR      69  12  11 S22G30    29.53F
$$

COZ042>045-048>051-090-091-240100-
...NORTHEAST COLORADO...

CITY           SKY/WX    TMP DP  RH WIND       PRES   REMARKS
GREELEY ARPT   FAIR      70  21  16 NW30G37   29.53R
AKRON          FAIR      73  17  12 SW15G31   29.54R
BURLINGTON     FAIR      77  25  14 S30G39    29.49F
WRAY           NOT AVBL
STERLING       FAIR      73  32  21 N5        29.49R
HOLYOKE        FAIR      73  45  35 E14       29.49S
FORT MORGAN    FAIR      71  14  11 SE24G32   29.52S
$$

COZ086-089-092>099-240100-
...SOUTHEAST COLORADO...

CITY           SKY/WX    TMP DP  RH WIND       PRES   REMARKS
PUEBLO         FAIR      73  18  12 W17       29.48F
LA JUNTA       FAIR      74  29  19 S15       29.48F
LAMAR          FAIR      74  27  17 W15       29.45F
SPRINGFIELD      N/A     76  25  15 VRB6      29.47F
$$




USA.gov is the U.S. government's official web portal to all federal, state and local government web resources and services.